This is the latest recevied weather packets stored in our database for station/object CQ0XVC-11. If no packets are shown the sender has not sent any weather packets the latest 1 day(s).
| Time | Temp. | Humidity | Pressure | Rain* | Wind** | Luminosity | Snow |
|---|---|---|---|---|---|---|---|
| 1778001527 | 17.22° C | 39% | 1002.7 hPa | 0 mm | 2.24 m/s, 292° | - | - |
| 1778001224 | 16.67° C | 40% | 1002.5 hPa | 0 mm | 2.68 m/s, 78° | - | - |
| 1778000923 | 16.67° C | 38% | 1002.7 hPa | 0 mm | 3.13 m/s, 292° | - | - |
| 1778000620 | 17.22° C | 39% | 1002.6 hPa | 0 mm | 4.02 m/s, 247° | - | - |
| 1778000318 | 17.78° C | 37% | 1002.7 hPa | 0 mm | 3.13 m/s, 315° | - | - |
| 1778000016 | 18.33° C | 36% | 1002.7 hPa | 0 mm | 1.79 m/s, 281° | - | - |
| 1777999714 | 18.33° C | 36% | 1002.4 hPa | 0 mm | 0.45 m/s, 292° | - | - |
| 1777999411 | 18.33° C | 35% | 1002.4 hPa | 0 mm | 3.13 m/s, 292° | - | - |
| 1777999110 | 18.33° C | 37% | 1002.5 hPa | 0 mm | 3.13 m/s, 315° | - | - |
| 1777998807 | 18.33° C | 36% | 1002.5 hPa | 0 mm | 0.89 m/s, 157° | - | - |
| 1777998505 | 18.33° C | 36% | 1002.5 hPa | 0 mm | 1.79 m/s, 67° | - | - |
| 1777998238 | 18.33° C | 34% | 1002.3 hPa | 0 mm | 3.13 m/s, 67° | - | - |
| 1777998203 | 18.33° C | 34% | 1002.3 hPa | 0 mm | 3.13 m/s, 67° | - | - |
| 1777997901 | 18.33° C | 33% | 1002.4 hPa | 0 mm | 2.24 m/s, 270° | - | - |
| 1777997598 | 18.33° C | 35% | 1002.4 hPa | 0 mm | 1.79 m/s, 292° | - | - |
| 1777997297 | 18.33° C | 35% | 1002.2 hPa | 0 mm | 2.68 m/s, 303° | - | - |
| 1777996737 | 18.33° C | 35% | 1002.3 hPa | 0 mm | 3.13 m/s, 303° | - | - |
| 1777996692 | 18.33° C | 35% | 1002.3 hPa | 0 mm | 3.13 m/s, 303° | - | - |
| 1777996390 | 18.33° C | 36% | 1002.5 hPa | 0 mm | 3.13 m/s, 292° | - | - |
| 1777996088 | 18.33° C | 35% | 1002.3 hPa | 0 mm | 4.47 m/s, 303° | - | - |
| 1777995785 | 18.33° C | 36% | 1002.3 hPa | 0 mm | 0.45 m/s, 258° | - | - |
| 1777995484 | 18.33° C | 33% | 1002.4 hPa | 0 mm | 3.13 m/s, 315° | - | - |
| 1777995181 | 18.33° C | 33% | 1002.5 hPa | 0 mm | 2.24 m/s, 202° | - | - |
| 1777994943 | 18.33° C | 35% | 1002.4 hPa | 0 mm | 4.02 m/s, 90° | - | - |
| 1777994879 | 18.33° C | 35% | 1002.4 hPa | 0 mm | 4.02 m/s, 90° | - | - |
* Rain since midnight (hover to see other rain measurements)
** Current wind speed in m/s (hover to see current wind gust speed)